Regional Weather Roundup
Issued by NWS Charleston, WV

Home | Current Version | Previous Version | Graphics & Text | Print | Product List | Glossary On
Versions: 1 2 3 4 5 6 7 8 9 10 11 12 13 14 15 16 17 18 19 20 21 22 23 24 25 26 27 28 29 30 31 32 33 34 35 36 37 38 39 40 41 42 43 44 45 46 47 48 49 50
000
ASUS41 KRLX 030210
RWRRLX
West Virginia Regional Weather Roundup
National Weather Service Charleston WV
900 PM EST MON MAR 02 2015

Note: "fair" indicates few or no clouds below 12,000 feet with no
significant weather and/or obstructions to visibility.

WVZ003-030300-
Northern Panhandle of West Virginia

CITY           SKY/WX    TMP DP  RH WIND       PRES   REMARKS
WHEELING       PTCLDY    25  11  55 N3        30.40F
$$

WVZ009-030300-
Northwest West Virginia

CITY           SKY/WX    TMP DP  RH WIND       PRES   REMARKS
PARKERSBURG    CLEAR     27  17  66 CALM      30.46S
$$

WVZ006-030300-
Western West Virginia

CITY           SKY/WX    TMP DP  RH WIND       PRES   REMARKS
HUNTINGTON     PTCLDY    31  17  56 NE3       30.42R
$$

WVZ015-030300-
West Central West Virginia

CITY           SKY/WX    TMP DP  RH WIND       PRES   REMARKS
CHARLESTON     PTCLDY    31  17  56 CALM      30.41S
$$

WVZ022-031-030300-
North Central West Virginia

CITY           SKY/WX    TMP DP  RH WIND       PRES   REMARKS
CLARKSBURG     CLEAR     27  16  63 CALM      30.40S
MORGANTOWN     CLEAR     27  11  51 NE3       30.41S
$$

WVZ025-035-042-045-030300-
Southern West Virginia

CITY           SKY/WX    TMP DP  RH WIND       PRES   REMARKS
BECKLEY        PTCLDY    30  14  51 NE3       30.32F
LOGAN            N/A     32  18  55 NE5       30.34R
BLUEFIELD      MOCLDY    33  16  49 CALM      30.31S
LEWISBURG      MOCLDY    30  19  63 CALM      30.34S
$$

WVZ047-030300-
Northern Mountains of West Virginia

CITY           SKY/WX    TMP DP  RH WIND       PRES   REMARKS
ELKINS         CLEAR     21  19  92 CALM      30.36S
$$

WVZ052-030300-
Eastern Panhandle of West Virginia

CITY           SKY/WX    TMP DP  RH WIND       PRES   REMARKS
MARTINSBURG    CLEAR     32  13  45 N3        30.41R
PETERSBURG     CLEAR     31  18  58 CALM      30.41R
$$


USA.gov is the U.S. government's official web portal to all federal, state and local government web resources and services.